User: anonymous   Login
Location: Oshawa
(43.9000°N, 78.8670°W)
Time: 11:40:43
(UTC-04:00)
Language:

SPOT 5 - Orbit

View from above orbital plane
View from above orbital plane
View from above satellite
View from above satellite

Ground track
Ground track

The orbit data is extracted from the following two-line orbital elements,

1 27421U 02021A   15116.17013649  .00000050  00000-0  42552-4 0  9993
2 27421 098.5162 173.6577 0001089 097.8672 354.7348 14.20890953672743
Epoch (UTC): 26 April 2015 04:04:59
Eccentricity: 0.0001089
inclination: 98.5162°
perigee height: 821 km
apogee height: 823 km
right ascension of ascending node: 173.6577°
argument of perigee: 97.8672°
revolutions per day: 14.20890953
mean anomaly at epoch: 354.7348°
orbit number at epoch: 67274

The dashed part of the orbit path shows where the satellite is in the earth's shadow,  

DLR